Time,TemperatureF,DewpointF,PressureIn,WindDirection,WindDirectionDegrees,WindSpeedMPH,WindSpeedGustMPH,Humidity,HourlyPrecipIn,Conditions,Clouds,dailyrainin,SoftwareType,DateUTC
2013-09-21 00:00:00,47.3,41.4,29.81,SE,145,4.0,7.0,80,0.00,,,0.00,VWS V14.01,2013-09-21 05:00:00,
2013-09-21 00:01:00,47.3,41.4,29.81,SE,142,3.0,7.0,80,0.00,,,0.00,VWS V14.01,2013-09-21 05:01:00,
2013-09-21 00:06:00,47.2,41.3,29.81,SE,135,4.0,7.0,80,0.00,,,0.00,VWS V14.01,2013-09-21 05:06:00,
2013-09-21 00:11:00,47.3,41.7,29.81,SE,128,4.0,7.0,81,0.00,,,0.00,VWS V14.01,2013-09-21 05:11:00,
2013-09-21 00:15:00,47.4,41.5,29.81,ESE,121,4.0,7.0,80,0.00,,,0.00,VWS V14.01,2013-09-21 05:15:00,
2013-09-21 00:16:00,47.4,41.5,29.81,SE,138,4.0,5.0,80,0.00,,,0.00,VWS V14.01,2013-09-21 05:16:00,
2013-09-21 00:21:00,47.4,41.5,29.81,SE,146,3.0,7.0,80,0.00,,,0.00,VWS V14.01,2013-09-21 05:21:00,
2013-09-21 00:26:00,47.3,41.7,29.81,SE,140,4.0,7.0,81,0.00,,,0.00,VWS V14.01,2013-09-21 05:26:00,
2013-09-21 00:30:00,47.3,41.7,29.81,SE,137,4.0,7.0,81,0.00,,,0.00,VWS V14.01,2013-09-21 05:30:00,
2013-09-21 00:31:00,47.3,41.7,29.81,SE,145,4.0,7.0,81,0.00,,,0.00,VWS V14.01,2013-09-21 05:31:00,
2013-09-21 00:36:00,47.2,41.6,29.81,SE,138,4.0,7.0,81,0.00,,,0.00,VWS V14.01,2013-09-21 05:36:00,
2013-09-21 00:41:00,47.1,41.5,29.81,SE,138,4.0,7.0,81,0.00,,,0.00,VWS V14.01,2013-09-21 05:41:00,
2013-09-21 00:45:00,46.9,41.3,29.81,SE,138,5.0,7.0,81,0.00,,,0.00,VWS V14.01,2013-09-21 05:45:00,
2013-09-21 00:46:00,46.8,41.2,29.81,SSE,149,5.0,7.0,81,0.00,,,0.00,VWS V14.01,2013-09-21 05:46:00,
2013-09-21 00:51:00,46.6,41.3,29.81,SE,139,4.0,7.0,82,0.00,,,0.00,VWS V14.01,2013-09-21 05:51:00,
2013-09-21 00:56:00,46.5,41.2,29.81,SE,136,4.0,7.0,82,0.00,,,0.00,VWS V14.01,2013-09-21 05:56:00,
2013-09-21 01:00:00,46.5,41.2,29.81,SE,124,4.0,7.0,82,0.00,,,0.00,VWS V14.01,2013-09-21 06:00:00,
2013-09-21 01:01:00,46.4,41.1,29.80,SE,142,3.0,5.0,82,0.00,,,0.00,VWS V14.01,2013-09-21 06:01:00,
2013-09-21 01:06:00,46.3,41.3,29.80,SE,130,5.0,7.0,83,0.00,,,0.00,VWS V14.01,2013-09-21 06:06:00,
2013-09-21 01:11:00,46.4,41.4,29.80,SE,127,4.0,7.0,83,0.00,,,0.00,VWS V14.01,2013-09-21 06:11:00,
2013-09-21 01:15:00,46.4,41.4,29.81,SSE,148,3.0,7.0,83,0.00,,,0.00,VWS V14.01,2013-09-21 06:15:00,
2013-09-21 01:16:00,46.4,41.4,29.81,SE,130,4.0,7.0,83,0.00,,,0.00,VWS V14.01,2013-09-21 06:16:00,
2013-09-21 01:21:00,46.4,41.4,29.81,SE,136,4.0,7.0,83,0.00,,,0.00,VWS V14.01,2013-09-21 06:21:00,
2013-09-21 01:26:00,46.3,41.3,29.81,SE,138,4.0,7.0,83,0.00,,,0.00,VWS V14.01,2013-09-21 06:26:00,
2013-09-21 01:30:00,46.3,41.3,29.81,SE,132,3.0,7.0,83,0.00,,,0.00,VWS V14.01,2013-09-21 06:30:00,
2013-09-21 01:31:00,46.2,41.2,29.81,SE,144,3.0,7.0,83,0.00,,,0.00,VWS V14.01,2013-09-21 06:31:00,
2013-09-21 01:36:00,46.4,41.4,29.81,ESE,107,4.0,8.0,83,0.00,,,0.00,VWS V14.01,2013-09-21 06:36:00,
2013-09-21 01:41:00,46.5,41.5,29.81,SE,128,3.0,9.0,83,0.00,,,0.00,VWS V14.01,2013-09-21 06:41:00,
2013-09-21 01:45:00,46.5,41.5,29.80,SE,128,5.0,9.0,83,0.00,,,0.00,VWS V14.01,2013-09-21 06:45:00,
2013-09-21 01:46:00,46.4,41.4,29.80,ESE,121,4.0,7.0,83,0.00,,,0.00,VWS V14.01,2013-09-21 06:46:00,
2013-09-21 01:51:00,46.3,41.3,29.80,SE,142,2.0,7.0,83,0.00,,,0.00,VWS V14.01,2013-09-21 06:51:00,
2013-09-21 01:56:00,46.1,41.1,29.80,SE,128,5.0,8.0,83,0.00,,,0.00,VWS V14.01,2013-09-21 06:56:00,
2013-09-21 02:00:00,46.0,41.3,29.80,SE,142,5.0,8.0,84,0.00,,,0.00,VWS V14.01,2013-09-21 07:00:00,
2013-09-21 02:01:00,45.9,41.2,29.80,SE,130,7.0,7.0,84,0.00,,,0.00,VWS V14.01,2013-09-21 07:01:00,
2013-09-21 02:06:00,45.8,41.2,29.80,ESE,104,6.0,7.0,84,0.00,,,0.00,VWS V14.01,2013-09-21 07:06:00,
2013-09-21 02:11:00,45.7,41.1,29.80,SE,140,4.0,7.0,84,0.00,,,0.00,VWS V14.01,2013-09-21 07:11:00,
2013-09-21 02:15:00,45.6,41.3,29.80,ESE,120,4.0,7.0,85,0.00,,,0.00,VWS V14.01,2013-09-21 07:15:00,
2013-09-21 02:16:00,45.5,40.9,29.80,SE,142,4.0,5.0,84,0.00,,,0.00,VWS V14.01,2013-09-21 07:16:00,
2013-09-21 02:21:00,45.4,41.1,29.80,SE,127,4.0,7.0,85,0.00,,,0.00,VWS V14.01,2013-09-21 07:21:00,
2013-09-21 02:26:00,45.5,41.2,29.80,SE,144,4.0,8.0,85,0.00,,,0.00,VWS V14.01,2013-09-21 07:26:00,
2013-09-21 02:30:00,45.5,41.2,29.80,SE,140,3.0,8.0,85,0.00,,,0.00,VWS V14.01,2013-09-21 07:30:00,
2013-09-21 02:31:00,45.5,41.2,29.80,SSE,147,3.0,7.0,85,0.00,,,0.00,VWS V14.01,2013-09-21 07:31:00,
2013-09-21 02:36:00,45.5,41.2,29.80,SE,132,4.0,7.0,85,0.00,,,0.00,VWS V14.01,2013-09-21 07:36:00,
2013-09-21 02:41:00,45.4,41.1,29.80,SE,130,4.0,7.0,85,0.00,,,0.00,VWS V14.01,2013-09-21 07:41:00,
2013-09-21 02:45:00,45.3,41.0,29.80,ESE,113,4.0,7.0,85,0.00,,,0.00,VWS V14.01,2013-09-21 07:45:00,
2013-09-21 02:46:00,45.3,41.3,29.80,SE,136,3.0,4.0,86,0.00,,,0.00,VWS V14.01,2013-09-21 07:46:00,
2013-09-21 02:51:00,45.3,41.3,29.80,SE,136,2.0,4.0,86,0.00,,,0.00,VWS V14.01,2013-09-21 07:51:00,
2013-09-21 02:56:00,45.2,40.9,29.80,SE,138,2.0,4.0,85,0.00,,,0.00,VWS V14.01,2013-09-21 07:56:00,
2013-09-21 03:00:00,45.0,41.0,29.80,SE,144,2.0,4.0,86,0.00,,,0.00,VWS V14.01,2013-09-21 08:00:00,
2013-09-21 03:01:00,45.0,41.0,29.80,SE,144,2.0,3.0,86,0.00,,,0.00,VWS V14.01,2013-09-21 08:01:00,
2013-09-21 03:06:00,44.7,40.7,29.80,SE,130,1.0,3.0,86,0.00,,,0.00,VWS V14.01,2013-09-21 08:06:00,
2013-09-21 03:11:00,44.6,40.9,29.80,SE,127,2.0,3.0,87,0.00,,,0.00,VWS V14.01,2013-09-21 08:11:00,
2013-09-21 03:15:00,44.5,40.8,29.80,ESE,111,2.0,3.0,87,0.00,,,0.00,VWS V14.01,2013-09-21 08:15:00,
2013-09-21 03:16:00,44.5,40.8,29.79,ESE,111,1.0,3.0,87,0.00,,,0.00,VWS V14.01,2013-09-21 08:16:00,
2013-09-21 03:21:00,44.4,40.7,29.80,ESE,106,2.0,3.0,87,0.00,,,0.00,VWS V14.01,2013-09-21 08:21:00,
2013-09-21 03:26:00,44.4,40.7,29.79,ESE,117,1.0,3.0,87,0.00,,,0.00,VWS V14.01,2013-09-21 08:26:00,
2013-09-21 03:30:00,44.3,40.6,29.79,SE,130,2.0,4.0,87,0.00,,,0.00,VWS V14.01,2013-09-21 08:30:00,
2013-09-21 03:31:00,44.3,40.6,29.79,SE,130,3.0,3.0,87,0.00,,,0.00,VWS V14.01,2013-09-21 08:31:00,
2013-09-21 03:36:00,44.1,40.4,29.79,SSE,153,2.0,4.0,87,0.00,,,0.00,VWS V14.01,2013-09-21 08:36:00,
2013-09-21 03:41:00,44.0,40.3,29.79,SE,137,2.0,4.0,87,0.00,,,0.00,VWS V14.01,2013-09-21 08:41:00,
2013-09-21 03:45:00,43.9,40.2,29.79,SE,135,2.0,4.0,87,0.00,,,0.00,VWS V14.01,2013-09-21 08:45:00,
2013-09-21 03:46:00,43.9,40.2,29.79,SE,137,2.0,4.0,87,0.00,,,0.00,VWS V14.01,2013-09-21 08:46:00,
2013-09-21 03:51:00,43.7,40.3,29.80,SE,137,2.0,4.0,88,0.00,,,0.00,VWS V14.01,2013-09-21 08:51:00,
2013-09-21 03:56:00,43.6,40.2,29.79,ESE,120,2.0,4.0,88,0.00,,,0.00,VWS V14.01,2013-09-21 08:56:00,
2013-09-21 04:00:00,43.6,40.2,29.79,ESE,103,1.0,4.0,88,0.00,,,0.00,VWS V14.01,2013-09-21 09:00:00,
2013-09-21 04:01:00,43.6,40.2,29.79,ESE,121,3.0,3.0,88,0.00,,,0.00,VWS V14.01,2013-09-21 09:01:00,
2013-09-21 04:06:00,43.5,40.1,29.79,ESE,121,1.0,3.0,88,0.00,,,0.00,VWS V14.01,2013-09-21 09:06:00,
2013-09-21 04:11:00,43.4,40.3,29.79,ESE,121,0.0,3.0,89,0.00,,,0.00,VWS V14.01,2013-09-21 09:11:00,
2013-09-21 04:15:00,43.2,40.1,29.80,ESE,121,1.0,3.0,89,0.00,,,0.00,VWS V14.01,2013-09-21 09:15:00,
2013-09-21 04:16:00,43.2,41.2,29.79,ESE,121,0.0,1.0,93,0.00,,,0.00,VWS V14.01,2013-09-21 09:16:00,
2013-09-21 04:21:00,43.0,39.9,29.80,ESE,121,1.0,2.0,89,0.00,,,0.00,VWS V14.01,2013-09-21 09:21:00,
2013-09-21 04:26:00,42.9,39.8,29.80,ESE,121,0.0,2.0,89,0.00,,,0.00,VWS V14.01,2013-09-21 09:26:00,
2013-09-21 04:30:00,42.9,39.8,29.80,ESE,121,0.0,2.0,89,0.00,,,0.00,VWS V14.01,2013-09-21 09:30:00,
2013-09-21 04:31:00,42.8,39.7,29.80,ESE,121,0.0,0.0,89,0.00,,,0.00,VWS V14.01,2013-09-21 09:31:00,
2013-09-21 04:36:00,42.6,39.5,29.80,ESE,121,0.0,1.0,89,0.00,,,0.00,VWS V14.01,2013-09-21 09:36:00,
2013-09-21 04:41:00,42.4,39.3,29.80,ESE,121,0.0,1.0,89,0.00,,,0.00,VWS V14.01,2013-09-21 09:41:00,
2013-09-21 04:45:00,42.3,39.2,29.80,ESE,121,1.0,1.0,89,0.00,,,0.00,VWS V14.01,2013-09-21 09:45:00,
2013-09-21 04:46:00,42.3,39.2,29.80,ESE,121,1.0,1.0,89,0.00,,,0.00,VWS V14.01,2013-09-21 09:46:00,
2013-09-21 04:51:00,42.1,39.3,29.80,ESE,121,1.0,1.0,90,0.00,,,0.00,VWS V14.01,2013-09-21 09:51:00,
2013-09-21 04:56:00,42.0,39.2,29.80,ESE,121,2.0,2.0,90,0.00,,,0.00,VWS V14.01,2013-09-21 09:56:00,
2013-09-21 05:00:00,42.0,39.2,29.80,ESE,113,2.0,3.0,90,0.00,,,0.00,VWS V14.01,2013-09-21 10:00:00,
2013-09-21 05:01:00,42.0,39.2,29.80,ESE,109,3.0,3.0,90,0.00,,,0.00,VWS V14.01,2013-09-21 10:01:00,
2013-09-21 05:06:00,41.9,39.1,29.80,ESE,113,2.0,3.0,90,0.00,,,0.00,VWS V14.01,2013-09-21 10:06:00,
2013-09-21 05:11:00,41.9,39.1,29.79,SE,124,1.0,3.0,90,0.00,,,0.00,VWS V14.01,2013-09-21 10:11:00,
2013-09-21 05:15:00,41.9,39.4,29.79,ESE,117,1.0,3.0,91,0.00,,,0.00,VWS V14.01,2013-09-21 10:15:00,
2013-09-21 05:16:00,41.9,39.4,29.79,ESE,115,2.0,3.0,91,0.00,,,0.00,VWS V14.01,2013-09-21 10:16:00,
2013-09-21 05:21:00,41.9,39.4,29.80,ESE,114,1.0,3.0,91,0.00,,,0.00,VWS V14.01,2013-09-21 10:21:00,
2013-09-21 05:26:00,41.9,39.4,29.80,ESE,118,3.0,3.0,91,0.00,,,0.00,VWS V14.01,2013-09-21 10:26:00,
2013-09-21 05:30:00,41.9,39.4,29.79,ESE,109,2.0,3.0,91,0.00,,,0.00,VWS V14.01,2013-09-21 10:30:00,
2013-09-21 05:31:00,41.9,39.4,29.79,ESE,111,2.0,3.0,91,0.00,,,0.00,VWS V14.01,2013-09-21 10:31:00,
2013-09-21 05:36:00,41.8,39.3,29.79,ESE,113,2.0,4.0,91,0.00,,,0.00,VWS V14.01,2013-09-21 10:36:00,
2013-09-21 05:41:00,41.9,39.4,29.79,ESE,121,2.0,4.0,91,0.00,,,0.00,VWS V14.01,2013-09-21 10:41:00,
2013-09-21 05:45:00,41.8,39.0,29.79,ESE,116,3.0,4.0,90,0.00,,,0.00,VWS V14.01,2013-09-21 10:45:00,
2013-09-21 05:46:00,41.8,39.0,29.79,ESE,120,1.0,3.0,90,0.00,,,0.00,VWS V14.01,2013-09-21 10:46:00,
2013-09-21 05:51:00,41.6,39.1,29.79,ESE,111,2.0,4.0,91,0.00,,,0.00,VWS V14.01,2013-09-21 10:51:00,
2013-09-21 05:56:00,41.6,39.1,29.79,East,97,3.0,4.0,91,0.00,,,0.00,VWS V14.01,2013-09-21 10:56:00,
2013-09-21 06:00:00,41.5,39.0,29.79,ESE,111,3.0,4.0,91,0.00,,,0.00,VWS V14.01,2013-09-21 11:00:00,
2013-09-21 06:01:00,41.5,39.0,29.79,ESE,106,2.0,4.0,91,0.00,,,0.00,VWS V14.01,2013-09-21 11:01:00,
2013-09-21 06:06:00,41.4,38.9,29.79,East,91,3.0,4.0,91,0.00,,,0.00,VWS V14.01,2013-09-21 11:06:00,
2013-09-21 06:11:00,41.4,38.9,29.79,ESE,106,3.0,4.0,91,0.00,,,0.00,VWS V14.01,2013-09-21 11:11:00,
2013-09-21 06:15:00,41.3,38.8,29.79,East,100,3.0,5.0,91,0.00,,,0.00,VWS V14.01,2013-09-21 11:15:00,
2013-09-21 06:16:00,41.3,38.8,29.79,ESE,121,3.0,4.0,91,0.00,,,0.00,VWS V14.01,2013-09-21 11:16:00,
2013-09-21 06:21:00,41.2,38.7,29.79,ESE,115,2.0,5.0,91,0.00,,,0.00,VWS V14.01,2013-09-21 11:21:00,
2013-09-21 06:26:00,41.1,38.6,29.79,ESE,115,4.0,5.0,91,0.00,,,0.00,VWS V14.01,2013-09-21 11:26:00,
2013-09-21 06:30:00,41.0,38.5,29.79,ESE,109,4.0,5.0,91,0.00,,,0.00,VWS V14.01,2013-09-21 11:30:00,
2013-09-21 06:31:00,41.0,38.5,29.79,ESE,120,2.0,4.0,91,0.00,,,0.00,VWS V14.01,2013-09-21 11:31:00,
2013-09-21 06:36:00,41.0,39.9,29.78,ESE,107,2.0,5.0,96,0.00,,,0.00,VWS V14.01,2013-09-21 11:36:00,
2013-09-21 06:41:00,40.9,38.4,29.79,ESE,103,3.0,5.0,91,0.00,,,0.00,VWS V14.01,2013-09-21 11:41:00,
2013-09-21 06:45:00,40.8,38.3,29.78,East,86,3.0,5.0,91,0.00,,,0.00,VWS V14.01,2013-09-21 11:45:00,
2013-09-21 06:46:00,40.8,38.3,29.78,ESE,105,2.0,4.0,91,0.00,,,0.00,VWS V14.01,2013-09-21 11:46:00,
2013-09-21 06:51:00,40.7,38.2,29.78,East,86,2.0,4.0,91,0.00,,,0.00,VWS V14.01,2013-09-21 11:51:00,
2013-09-21 06:56:00,40.6,38.1,29.78,East,90,2.0,4.0,91,0.00,,,0.00,VWS V14.01,2013-09-21 11:56:00,
2013-09-21 07:00:00,40.5,38.0,29.78,ESE,103,3.0,5.0,91,0.00,,,0.00,VWS V14.01,2013-09-21 12:00:00,
2013-09-21 07:01:00,40.5,38.0,29.78,East,97,2.0,3.0,91,0.00,,,0.00,VWS V14.01,2013-09-21 12:01:00,
2013-09-21 07:06:00,40.4,37.9,29.79,ESE,105,2.0,4.0,91,0.00,,,0.00,VWS V14.01,2013-09-21 12:06:00,
2013-09-21 07:11:00,40.3,37.8,29.78,East,87,1.0,4.0,91,0.00,,,0.00,VWS V14.01,2013-09-21 12:11:00,
2013-09-21 07:15:00,40.2,37.7,29.78,ESE,108,2.0,4.0,91,0.00,,,0.00,VWS V14.01,2013-09-21 12:15:00,
2013-09-21 07:16:00,40.1,37.6,29.79,ESE,109,2.0,3.0,91,0.00,,,0.00,VWS V14.01,2013-09-21 12:16:00,
2013-09-21 07:21:00,40.0,37.5,29.78,East,85,3.0,3.0,91,0.00,,,0.00,VWS V14.01,2013-09-21 12:21:00,
2013-09-21 07:26:00,39.9,37.4,29.78,SE,126,3.0,4.0,91,0.00,,,0.00,VWS V14.01,2013-09-21 12:26:00,
2013-09-21 07:30:00,39.9,37.4,29.78,ESE,118,4.0,5.0,91,0.00,,,0.00,VWS V14.01,2013-09-21 12:30:00,
2013-09-21 07:31:00,39.8,37.3,29.78,ESE,119,4.0,5.0,91,0.00,,,0.00,VWS V14.01,2013-09-21 12:31:00,
2013-09-21 07:36:00,39.8,37.3,29.79,ESE,122,3.0,5.0,91,0.00,,,0.00,VWS V14.01,2013-09-21 12:36:00,
2013-09-21 07:41:00,39.8,37.6,29.79,ESE,105,3.0,6.0,92,0.00,,,0.00,VWS V14.01,2013-09-21 12:41:00,
2013-09-21 07:45:00,39.9,37.7,29.79,ESE,115,3.0,6.0,92,0.00,,,0.00,VWS V14.01,2013-09-21 12:45:00,
2013-09-21 07:46:00,39.9,37.7,29.79,East,95,2.0,4.0,92,0.00,,,0.00,VWS V14.01,2013-09-21 12:46:00,
2013-09-21 07:51:00,40.0,37.8,29.79,East,99,3.0,5.0,92,0.00,,,0.00,VWS V14.01,2013-09-21 12:51:00,
2013-09-21 07:56:00,40.1,37.9,29.78,East,92,4.0,5.0,92,0.00,,,0.00,VWS V14.01,2013-09-21 12:56:00,
2013-09-21 08:00:00,40.2,38.0,29.78,ESE,102,5.0,5.0,92,0.00,,,0.00,VWS V14.01,2013-09-21 13:00:00,
2013-09-21 08:01:00,40.2,38.0,29.78,ESE,104,3.0,6.0,92,0.00,,,0.00,VWS V14.01,2013-09-21 13:01:00,
2013-09-21 08:06:00,40.5,38.3,29.78,East,91,4.0,6.0,92,0.00,,,0.00,VWS V14.01,2013-09-21 13:06:00,
2013-09-21 08:11:00,40.6,38.4,29.78,ESE,105,5.0,6.0,92,0.00,,,0.00,VWS V14.01,2013-09-21 13:11:00,
2013-09-21 08:15:00,40.8,38.6,29.78,SE,127,6.0,6.0,92,0.00,,,0.00,VWS V14.01,2013-09-21 13:15:00,
2013-09-21 08:16:00,40.9,38.7,29.78,SE,138,3.0,6.0,92,0.00,,,0.00,VWS V14.01,2013-09-21 13:16:00,
2013-09-21 08:21:00,41.2,39.0,29.78,ESE,114,3.0,8.0,92,0.00,,,0.00,VWS V14.01,2013-09-21 13:21:00,
2013-09-21 08:26:00,41.5,39.3,29.78,ESE,105,5.0,8.0,92,0.00,,,0.00,VWS V14.01,2013-09-21 13:26:00,
2013-09-21 08:30:00,41.9,39.4,29.78,SE,125,4.0,8.0,91,0.00,,,0.00,VWS V14.01,2013-09-21 13:30:00,
2013-09-21 08:31:00,42.0,39.5,29.78,SE,135,4.0,6.0,91,0.00,,,0.00,VWS V14.01,2013-09-21 13:31:00,
2013-09-21 08:36:00,42.5,40.0,29.78,ESE,115,5.0,8.0,91,0.00,,,0.00,VWS V14.01,2013-09-21 13:36:00,
2013-09-21 08:41:00,43.2,40.4,29.78,ESE,120,5.0,10.0,90,0.00,,,0.00,VWS V14.01,2013-09-21 13:41:00,
2013-09-21 08:45:00,43.8,41.0,29.77,ESE,111,5.0,10.0,90,0.00,,,0.00,VWS V14.01,2013-09-21 13:45:00,
2013-09-21 08:46:00,44.0,40.9,29.77,East,85,4.0,9.0,89,0.00,,,0.00,VWS V14.01,2013-09-21 13:46:00,
2013-09-21 08:51:00,44.7,41.3,29.77,SE,128,5.0,10.0,88,0.00,,,0.00,VWS V14.01,2013-09-21 13:51:00,
2013-09-21 08:56:00,45.1,41.4,29.77,SE,126,4.0,10.0,87,0.00,,,0.00,VWS V14.01,2013-09-21 13:56:00,
2013-09-21 09:00:00,45.1,41.4,29.77,SE,137,5.0,10.0,87,0.00,,,0.00,VWS V14.01,2013-09-21 14:00:00,
2013-09-21 09:01:00,45.1,41.4,29.77,East,92,6.0,11.0,87,0.00,,,0.00,VWS V14.01,2013-09-21 14:01:00,
2013-09-21 09:06:00,45.8,42.1,29.77,ESE,116,6.0,11.0,87,0.00,,,0.00,VWS V14.01,2013-09-21 14:06:00,
2013-09-21 09:11:00,46.8,42.4,29.77,ESE,107,6.0,11.0,85,0.00,,,0.00,VWS V14.01,2013-09-21 14:11:00,
2013-09-21 09:15:00,47.5,42.8,29.77,ESE,117,7.0,14.0,84,0.00,,,0.00,VWS V14.01,2013-09-21 14:15:00,
2013-09-21 09:16:00,47.7,43.0,29.76,East,86,5.0,9.0,84,0.00,,,0.00,VWS V14.01,2013-09-21 14:16:00,
2013-09-21 09:21:00,48.3,43.0,29.76,ESE,121,7.0,13.0,82,0.00,,,0.00,VWS V14.01,2013-09-21 14:21:00,
2013-09-21 09:26:00,48.7,43.0,29.76,ESE,103,7.0,13.0,81,0.00,,,0.00,VWS V14.01,2013-09-21 14:26:00,
2013-09-21 09:30:00,49.1,43.4,29.76,SE,141,10.0,13.0,81,0.00,,,0.00,VWS V14.01,2013-09-21 14:30:00,
2013-09-21 09:31:00,49.2,43.5,29.76,SE,124,11.0,12.0,81,0.00,,,0.00,VWS V14.01,2013-09-21 14:31:00,
2013-09-21 09:36:00,49.6,43.6,29.76,ESE,119,5.0,13.0,80,0.00,,,0.00,VWS V14.01,2013-09-21 14:36:00,
2013-09-21 09:41:00,49.9,43.9,29.76,ESE,116,6.0,13.0,80,0.00,,,0.00,VWS V14.01,2013-09-21 14:41:00,
2013-09-21 09:45:00,50.2,44.2,29.76,SE,128,7.0,13.0,80,0.00,,,0.00,VWS V14.01,2013-09-21 14:45:00,
2013-09-21 09:46:00,50.3,44.3,29.76,ESE,116,9.0,10.0,80,0.00,,,0.00,VWS V14.01,2013-09-21 14:46:00,
2013-09-21 09:51:00,50.7,44.7,29.76,ESE,122,6.0,11.0,80,0.00,,,0.00,VWS V14.01,2013-09-21 14:51:00,
2013-09-21 09:56:00,51.1,44.7,29.76,ESE,113,10.0,11.0,79,0.00,,,0.00,VWS V14.01,2013-09-21 14:56:00,
2013-09-21 10:00:00,51.4,45.0,29.76,ESE,116,9.0,11.0,79,0.00,,,0.00,VWS V14.01,2013-09-21 15:00:00,
2013-09-21 10:01:00,51.5,45.1,29.76,ESE,117,6.0,9.0,79,0.00,,,0.00,VWS V14.01,2013-09-21 15:01:00,
2013-09-21 10:06:00,52.3,45.9,29.76,ESE,121,9.0,11.0,79,0.00,,,0.00,VWS V14.01,2013-09-21 15:06:00,
2013-09-21 10:11:00,52.9,45.8,29.76,ESE,103,5.0,14.0,77,0.00,,,0.00,VWS V14.01,2013-09-21 15:11:00,
2013-09-21 10:15:00,53.3,46.2,29.76,ESE,119,4.0,14.0,77,0.00,,,0.00,VWS V14.01,2013-09-21 15:15:00,
2013-09-21 10:16:00,53.5,46.4,29.76,SE,131,7.0,10.0,77,0.00,,,0.00,VWS V14.01,2013-09-21 15:16:00,
2013-09-21 10:21:00,54.3,46.5,29.75,East,101,9.0,13.0,75,0.00,,,0.00,VWS V14.01,2013-09-21 15:21:00,
2013-09-21 10:26:00,55.0,46.0,29.75,ESE,117,12.0,15.0,72,0.00,,,0.00,VWS V14.01,2013-09-21 15:26:00,
2013-09-21 10:30:00,55.5,46.2,29.75,SE,142,13.0,15.0,71,0.00,,,0.00,VWS V14.01,2013-09-21 15:30:00,
2013-09-21 10:31:00,55.7,46.3,29.75,ESE,103,6.0,13.0,71,0.00,,,0.00,VWS V14.01,2013-09-21 15:31:00,
2013-09-21 10:36:00,56.3,46.2,29.75,SE,130,13.0,16.0,69,0.00,,,0.00,VWS V14.01,2013-09-21 15:36:00,
2013-09-21 10:41:00,56.8,46.2,29.75,ESE,119,9.0,16.0,68,0.00,,,0.00,VWS V14.01,2013-09-21 15:41:00,
2013-09-21 10:45:00,57.3,45.9,29.75,ESE,121,10.0,16.0,66,0.00,,,0.00,VWS V14.01,2013-09-21 15:45:00,
2013-09-21 10:46:00,57.3,45.5,29.75,ESE,117,10.0,14.0,65,0.00,,,0.00,VWS V14.01,2013-09-21 15:46:00,
2013-09-21 10:51:00,57.5,45.7,29.75,SE,139,11.0,16.0,65,0.00,,,0.00,VWS V14.01,2013-09-21 15:51:00,
2013-09-21 10:56:00,57.8,46.0,29.75,SSE,153,8.0,16.0,65,0.00,,,0.00,VWS V14.01,2013-09-21 15:56:00,
2013-09-21 11:00:00,58.4,46.2,29.75,ESE,111,5.0,16.0,64,0.00,,,0.00,VWS V14.01,2013-09-21 16:00:00,
2013-09-21 11:01:00,58.4,45.7,29.75,SE,130,5.0,11.0,63,0.00,,,0.00,VWS V14.01,2013-09-21 16:01:00,
2013-09-21 11:06:00,59.0,46.3,29.75,NE,37,6.0,15.0,63,0.00,,,0.00,VWS V14.01,2013-09-21 16:06:00,
2013-09-21 11:11:00,59.3,46.6,29.75,ESE,102,2.0,15.0,63,0.00,,,0.00,VWS V14.01,2013-09-21 16:11:00,
2013-09-21 11:15:00,59.6,46.5,29.74,SE,132,4.0,15.0,62,0.00,,,0.00,VWS V14.01,2013-09-21 16:15:00,
2013-09-21 11:16:00,59.7,46.5,29.74,SE,135,7.0,14.0,62,0.00,,,0.00,VWS V14.01,2013-09-21 16:16:00,
2013-09-21 11:21:00,60.1,46.9,29.74,ENE,68,2.0,14.0,62,0.00,,,0.00,VWS V14.01,2013-09-21 16:21:00,
2013-09-21 11:26:00,60.5,46.4,29.74,ESE,118,7.0,14.0,60,0.00,,,0.00,VWS V14.01,2013-09-21 16:26:00,
2013-09-21 11:30:00,60.7,46.6,29.73,ESE,110,10.0,14.0,60,0.00,,,0.00,VWS V14.01,2013-09-21 16:30:00,
2013-09-21 11:31:00,60.6,46.1,29.74,ENE,73,6.0,12.0,59,0.00,,,0.00,VWS V14.01,2013-09-21 16:31:00,
2013-09-21 11:36:00,60.5,46.0,29.73,ESE,119,9.0,17.0,59,0.00,,,0.00,VWS V14.01,2013-09-21 16:36:00,
2013-09-21 11:41:00,60.7,46.2,29.73,East,89,8.0,17.0,59,0.00,,,0.00,VWS V14.01,2013-09-21 16:41:00,
2013-09-21 11:45:00,60.8,45.8,29.73,ESE,118,10.0,17.0,58,0.00,,,0.00,VWS V14.01,2013-09-21 16:45:00,
2013-09-21 11:46:00,60.9,46.4,29.73,ESE,112,10.0,15.0,59,0.00,,,0.00,VWS V14.01,2013-09-21 16:46:00,
2013-09-21 11:51:00,61.1,46.1,29.73,East,95,9.0,16.0,58,0.00,,,0.00,VWS V14.01,2013-09-21 16:51:00,
2013-09-21 11:56:00,61.6,46.6,29.73,ENE,78,9.0,16.0,58,0.00,,,0.00,VWS V14.01,2013-09-21 16:56:00,
2013-09-21 12:00:00,61.6,46.1,29.72,ESE,115,9.0,16.0,57,0.00,,,0.00,VWS V14.01,2013-09-21 17:00:00,
2013-09-21 12:01:00,61.6,45.2,29.73,SE,134,11.0,17.0,55,0.00,,,0.00,VWS V14.01,2013-09-21 17:01:00,
2013-09-21 12:06:00,61.9,46.4,29.72,SE,140,5.0,17.0,57,0.00,,,0.00,VWS V14.01,2013-09-21 17:06:00,
2013-09-21 12:11:00,62.4,45.9,29.72,ENE,73,6.0,17.0,55,0.00,,,0.00,VWS V14.01,2013-09-21 17:11:00,
2013-09-21 12:15:00,62.4,45.9,29.72,ESE,113,7.0,17.0,55,0.00,,,0.00,VWS V14.01,2013-09-21 17:15:00,
2013-09-21 12:16:00,62.5,46.0,29.72,ESE,105,8.0,13.0,55,0.00,,,0.00,VWS V14.01,2013-09-21 17:16:00,
2013-09-21 12:21:00,62.5,46.0,29.72,East,97,9.0,13.0,55,0.00,,,0.00,VWS V14.01,2013-09-21 17:21:00,
2013-09-21 12:26:00,62.5,46.0,29.72,ESE,115,5.0,14.0,55,0.00,,,0.00,VWS V14.01,2013-09-21 17:26:00,
2013-09-21 12:30:00,62.8,45.3,29.72,ESE,111,10.0,15.0,53,0.00,,,0.00,VWS V14.01,2013-09-21 17:30:00,
2013-09-21 12:31:00,62.8,45.3,29.72,ESE,121,9.0,15.0,53,0.00,,,0.00,VWS V14.01,2013-09-21 17:31:00,
2013-09-21 12:36:00,62.9,45.4,29.71,East,99,11.0,15.0,53,0.00,,,0.00,VWS V14.01,2013-09-21 17:36:00,
2013-09-21 12:41:00,63.2,45.2,29.71,East,99,7.0,15.0,52,0.00,,,0.00,VWS V14.01,2013-09-21 17:41:00,
2013-09-21 12:45:00,63.4,45.3,29.71,East,92,6.0,18.0,52,0.00,,,0.00,VWS V14.01,2013-09-21 17:45:00,
2013-09-21 12:46:00,63.5,45.4,29.71,ESE,107,9.0,12.0,52,0.00,,,0.00,VWS V14.01,2013-09-21 17:46:00,
2013-09-21 12:51:00,63.8,45.7,29.70,SSE,147,12.0,16.0,52,0.00,,,0.00,VWS V14.01,2013-09-21 17:51:00,
2013-09-21 12:56:00,63.9,45.3,29.70,ESE,110,9.0,16.0,51,0.00,,,0.00,VWS V14.01,2013-09-21 17:56:00,
2013-09-21 13:00:00,64.0,45.4,29.70,SE,129,5.0,17.0,51,0.00,,,0.00,VWS V14.01,2013-09-21 18:00:00,
2013-09-21 13:01:00,64.1,45.5,29.70,ESE,107,13.0,13.0,51,0.00,,,0.00,VWS V14.01,2013-09-21 18:01:00,
2013-09-21 13:06:00,64.2,44.5,29.70,ESE,118,11.0,18.0,49,0.00,,,0.00,VWS V14.01,2013-09-21 18:06:00,
2013-09-21 13:11:00,64.4,43.6,29.70,SE,137,14.0,20.0,47,0.00,,,0.00,VWS V14.01,2013-09-21 18:11:00,
2013-09-21 13:15:00,64.7,45.0,29.70,SE,124,9.0,20.0,49,0.00,,,0.00,VWS V14.01,2013-09-21 18:15:00,
2013-09-21 13:16:00,64.9,44.6,29.70,SE,130,15.0,15.0,48,0.00,,,0.00,VWS V14.01,2013-09-21 18:16:00,
2013-09-21 13:21:00,65.4,43.9,29.69,ENE,68,8.0,16.0,46,0.00,,,0.00,VWS V14.01,2013-09-21 18:21:00,
2013-09-21 13:26:00,65.1,43.7,29.69,SE,137,10.0,20.0,46,0.00,,,0.00,VWS V14.01,2013-09-21 18:26:00,
2013-09-21 13:30:00,65.3,44.4,29.69,ESE,118,13.0,20.0,47,0.00,,,0.00,VWS V14.01,2013-09-21 18:30:00,
2013-09-21 13:31:00,65.3,44.4,29.69,SE,145,8.0,13.0,47,0.00,,,0.00,VWS V14.01,2013-09-21 18:31:00,
2013-09-21 13:36:00,65.6,44.7,29.69,ESE,109,6.0,16.0,47,0.00,,,0.00,VWS V14.01,2013-09-21 18:36:00,
2013-09-21 13:41:00,66.1,45.7,29.69,SE,128,6.0,16.0,48,0.00,,,0.00,VWS V14.01,2013-09-21 18:41:00,
2013-09-21 13:45:00,66.3,45.9,29.69,ESE,112,8.0,16.0,48,0.00,,,0.00,VWS V14.01,2013-09-21 18:45:00,
2013-09-21 14:00:00,66.6,45.0,29.68,ESE,112,9.0,21.0,46,0.00,,,0.00,VWS V14.01,2013-09-21 19:00:00,
2013-09-21 14:15:00,64.7,45.0,29.70,SE,124,9.0,20.0,49,0.00,,,0.00,VWS V14.01,2013-09-21 19:15:00,
2013-09-21 14:18:00,66.6,45.0,29.68,ESE,112,9.0,21.0,46,0.00,,,0.00,VWS V14.01,2013-09-21 19:18:00,
2013-09-21 14:23:00,67.1,45.5,29.66,SE,142,4.0,16.0,46,0.00,,,0.00,VWS V14.01,2013-09-21 19:23:00,
2013-09-21 14:28:00,67.7,45.4,29.66,East,92,5.0,16.0,45,0.00,,,0.00,VWS V14.01,2013-09-21 19:28:00,
2013-09-21 14:30:00,65.3,44.4,29.69,ESE,118,13.0,20.0,47,0.00,,,0.00,VWS V14.01,2013-09-21 19:30:00,
2013-09-21 14:33:00,67.8,45.5,29.66,SE,140,7.0,15.0,45,0.00,,,0.00,VWS V14.01,2013-09-21 19:33:00,
2013-09-21 14:38:00,67.8,46.1,29.66,ENE,57,4.0,16.0,46,0.00,,,0.00,VWS V14.01,2013-09-21 19:38:00,
2013-09-21 14:43:00,68.0,45.1,29.65,ESE,122,8.0,17.0,44,0.00,,,0.00,VWS V14.01,2013-09-21 19:43:00,
2013-09-21 14:45:00,66.3,45.9,29.69,ESE,112,8.0,16.0,48,0.00,,,0.00,VWS V14.01,2013-09-21 19:45:00,
2013-09-21 14:47:00,68.1,46.4,29.65,East,90,14.0,15.0,46,0.00,,,0.00,VWS V14.01,2013-09-21 19:47:00,
2013-09-21 14:52:00,68.4,45.5,29.65,ENE,78,7.0,15.0,44,0.00,,,0.00,VWS V14.01,2013-09-21 19:52:00,
2013-09-21 14:57:00,68.5,46.2,29.64,ESE,108,8.0,17.0,45,0.00,,,0.00,VWS V14.01,2013-09-21 19:57:00,
2013-09-21 15:00:00,66.6,45.0,29.68,ESE,112,9.0,21.0,46,0.00,,,0.00,VWS V14.01,2013-09-21 20:00:00,
2013-09-21 15:02:00,68.1,45.8,29.63,ENE,68,11.0,19.0,45,0.00,,,0.00,VWS V14.01,2013-09-21 20:02:00,
2013-09-21 15:07:00,68.2,45.9,29.63,East,89,9.0,19.0,45,0.00,,,0.00,VWS V14.01,2013-09-21 20:07:00,
2013-09-21 15:12:00,68.5,46.8,29.64,SE,138,9.0,19.0,46,0.00,,,0.00,VWS V14.01,2013-09-21 20:12:00,
2013-09-21 15:17:00,68.8,45.2,29.63,ESE,107,9.0,14.0,43,0.00,,,0.00,VWS V14.01,2013-09-21 20:17:00,
2013-09-21 15:22:00,68.6,46.8,29.63,East,92,7.0,16.0,46,0.00,,,0.00,VWS V14.01,2013-09-21 20:22:00,
2013-09-21 15:27:00,69.1,46.7,29.63,East,82,10.0,18.0,45,0.00,,,0.00,VWS V14.01,2013-09-21 20:27:00,
2013-09-21 15:30:00,67.7,46.0,29.66,SSE,159,8.0,16.0,46,0.00,,,0.00,VWS V14.01,2013-09-21 20:30:00,
2013-09-21 15:32:00,68.8,45.2,29.62,SE,124,9.0,19.0,43,0.00,,,0.00,VWS V14.01,2013-09-21 20:32:00,
2013-09-21 15:37:00,68.6,45.0,29.62,East,82,8.0,19.0,43,0.00,,,0.00,VWS V14.01,2013-09-21 20:37:00,
2013-09-21 15:42:00,68.9,46.5,29.62,SE,124,10.0,19.0,45,0.00,,,0.00,VWS V14.01,2013-09-21 20:42:00,
2013-09-21 15:45:00,67.9,46.2,29.65,ESE,105,12.0,17.0,46,0.00,,,0.00,VWS V14.01,2013-09-21 20:45:00,
2013-09-21 15:47:00,69.1,46.7,29.62,East,86,8.0,13.0,45,0.00,,,0.00,VWS V14.01,2013-09-21 20:47:00,
2013-09-21 15:52:00,69.4,46.4,29.62,ESE,105,10.0,16.0,44,0.00,,,0.00,VWS V14.01,2013-09-21 20:52:00,
2013-09-21 15:57:00,69.3,46.3,29.62,East,86,6.0,16.0,44,0.00,,,0.00,VWS V14.01,2013-09-21 20:57:00,
2013-09-21 16:00:00,68.2,45.3,29.64,ESE,113,6.0,19.0,44,0.00,,,0.00,VWS V14.01,2013-09-21 21:00:00,
2013-09-21 16:02:00,69.4,46.4,29.62,SE,132,12.0,16.0,44,0.00,,,0.00,VWS V14.01,2013-09-21 21:02:00,
2013-09-21 16:07:00,69.3,46.3,29.61,SE,132,14.0,17.0,44,0.00,,,0.00,VWS V14.01,2013-09-21 21:07:00,
2013-09-21 16:12:00,69.3,46.9,29.61,ESE,115,12.0,18.0,45,0.00,,,0.00,VWS V14.01,2013-09-21 21:12:00,
2013-09-21 16:15:00,68.7,45.8,29.64,East,99,6.0,19.0,44,0.00,,,0.00,VWS V14.01,2013-09-21 21:15:00,
2013-09-21 16:17:00,69.3,46.9,29.61,East,88,9.0,16.0,45,0.00,,,0.00,VWS V14.01,2013-09-21 21:17:00,
2013-09-21 16:22:00,69.3,46.3,29.61,East,94,13.0,18.0,44,0.00,,,0.00,VWS V14.01,2013-09-21 21:22:00,
2013-09-21 16:27:00,69.3,46.9,29.61,SSE,163,8.0,18.0,45,0.00,,,0.00,VWS V14.01,2013-09-21 21:27:00,
2013-09-21 16:30:00,68.9,45.9,29.63,East,95,7.0,18.0,44,0.00,,,0.00,VWS V14.01,2013-09-21 21:30:00,
2013-09-21 16:32:00,69.4,46.4,29.60,ESE,120,18.0,19.0,44,0.00,,,0.00,VWS V14.01,2013-09-21 21:32:00,
2013-09-21 16:37:00,69.2,47.4,29.60,ENE,73,6.0,19.0,46,0.00,,,0.00,VWS V14.01,2013-09-21 21:37:00,
2013-09-21 16:42:00,69.4,47.0,29.60,NE,42,10.0,19.0,45,0.00,,,0.00,VWS V14.01,2013-09-21 21:42:00,
2013-09-21 16:45:00,68.9,45.9,29.62,ESE,113,3.0,19.0,44,0.00,,,0.00,VWS V14.01,2013-09-21 21:45:00,
2013-09-21 16:47:00,69.4,47.0,29.60,East,97,14.0,14.0,45,0.00,,,0.00,VWS V14.01,2013-09-21 21:47:00,
2013-09-21 16:52:00,69.5,47.1,29.59,ESE,103,8.0,21.0,45,0.00,,,0.00,VWS V14.01,2013-09-21 21:52:00,
2013-09-21 16:57:00,69.4,47.0,29.59,East,86,9.0,22.0,45,0.00,,,0.00,VWS V14.01,2013-09-21 21:57:00,
2013-09-21 17:00:00,69.4,46.4,29.61,East,92,8.0,16.0,44,0.00,,,0.00,VWS V14.01,2013-09-21 22:00:00,
2013-09-21 17:02:00,69.3,46.9,29.59,East,93,5.0,16.0,45,0.00,,,0.00,VWS V14.01,2013-09-21 22:02:00,
2013-09-21 17:07:00,69.4,47.0,29.59,ESE,110,8.0,16.0,45,0.00,,,0.00,VWS V14.01,2013-09-21 22:07:00,
2013-09-21 17:12:00,69.4,47.0,29.59,ENE,78,5.0,20.0,45,0.00,,,0.00,VWS V14.01,2013-09-21 22:12:00,
2013-09-21 17:15:00,69.2,46.2,29.61,ESE,102,9.0,18.0,44,0.00,,,0.00,VWS V14.01,2013-09-21 22:15:00,
2013-09-21 17:17:00,69.6,47.8,29.58,East,88,7.0,15.0,46,0.00,,,0.00,VWS V14.01,2013-09-21 22:17:00,
2013-09-21 17:23:00,69.5,47.7,29.58,ESE,105,5.0,16.0,46,0.00,,,0.00,VWS V14.01,2013-09-21 22:23:00,
2013-09-21 17:28:00,69.6,47.2,29.58,East,84,10.0,17.0,45,0.00,,,0.00,VWS V14.01,2013-09-21 22:28:00,
2013-09-21 17:30:00,69.4,47.0,29.61,SE,141,7.0,18.0,45,0.00,,,0.00,VWS V14.01,2013-09-21 22:30:00,
2013-09-21 17:33:00,69.4,47.0,29.58,ESE,113,8.0,16.0,45,0.00,,,0.00,VWS V14.01,2013-09-21 22:33:00,
2013-09-21 17:38:00,69.3,47.5,29.58,ESE,107,11.0,17.0,46,0.00,,,0.00,VWS V14.01,2013-09-21 22:38:00,
2013-09-21 17:43:00,69.2,47.4,29.58,SE,137,13.0,17.0,46,0.00,,,0.00,VWS V14.01,2013-09-21 22:43:00,
2013-09-21 17:45:00,69.3,47.5,29.60,ESE,103,6.0,19.0,46,0.00,,,0.00,VWS V14.01,2013-09-21 22:45:00,
2013-09-21 17:48:00,69.4,47.6,29.58,East,97,9.0,14.0,46,0.00,,,0.00,VWS V14.01,2013-09-21 22:48:00,
2013-09-21 17:52:00,69.3,47.5,29.58,SE,140,13.0,16.0,46,0.00,,,0.00,VWS V14.01,2013-09-21 22:52:00,
2013-09-21 17:57:00,69.2,47.4,29.58,ESE,117,7.0,18.0,46,0.00,,,0.00,VWS V14.01,2013-09-21 22:57:00,
2013-09-21 18:00:00,69.2,46.8,29.59,ESE,105,9.0,22.0,45,0.00,,,0.00,VWS V14.01,2013-09-21 23:00:00,
2013-09-21 18:02:00,69.2,47.4,29.58,East,97,10.0,15.0,46,0.00,,,0.00,VWS V14.01,2013-09-21 23:02:00,
2013-09-21 18:07:00,69.1,47.3,29.58,SE,143,10.0,17.0,46,0.00,,,0.00,VWS V14.01,2013-09-21 23:07:00,
2013-09-21 18:12:00,68.9,47.1,29.57,East,90,5.0,17.0,46,0.00,,,0.00,VWS V14.01,2013-09-21 23:12:00,
2013-09-21 18:15:00,69.5,47.7,29.58,East,84,5.0,20.0,46,0.00,,,0.00,VWS V14.01,2013-09-21 23:15:00,
2013-09-21 18:17:00,68.8,47.6,29.57,ESE,115,12.0,12.0,47,0.00,,,0.00,VWS V14.01,2013-09-21 23:17:00,
2013-09-21 18:22:00,68.8,47.6,29.57,East,84,10.0,13.0,47,0.00,,,0.00,VWS V14.01,2013-09-21 23:22:00,
2013-09-21 18:27:00,68.8,47.6,29.57,ESE,107,6.0,14.0,47,0.00,,,0.00,VWS V14.01,2013-09-21 23:27:00,
2013-09-21 18:30:00,69.5,47.1,29.58,East,101,8.0,17.0,45,0.00,,,0.00,VWS V14.01,2013-09-21 23:30:00,
2013-09-21 18:32:00,68.6,48.0,29.57,East,86,8.0,15.0,48,0.00,,,0.00,VWS V14.01,2013-09-21 23:32:00,
2013-09-21 18:37:00,68.4,47.2,29.57,East,85,10.0,17.0,47,0.00,,,0.00,VWS V14.01,2013-09-21 23:37:00,
2013-09-21 18:42:00,68.3,47.7,29.57,South,174,10.0,17.0,48,0.00,,,0.00,VWS V14.01,2013-09-21 23:42:00,
2013-09-21 18:45:00,69.2,47.4,29.58,East,94,6.0,17.0,46,0.00,,,0.00,VWS V14.01,2013-09-21 23:45:00,
2013-09-21 18:47:00,68.0,47.4,29.57,ESE,111,12.0,15.0,48,0.00,,,0.00,VWS V14.01,2013-09-21 23:47:00,
2013-09-21 18:52:00,67.8,47.2,29.57,ESE,111,8.0,18.0,48,0.00,,,0.00,VWS V14.01,2013-09-21 23:52:00,
2013-09-21 18:57:00,67.6,47.6,29.57,ESE,113,9.0,18.0,49,0.00,,,0.00,VWS V14.01,2013-09-21 23:57:00,
2013-09-21 19:00:00,69.2,47.4,29.58,East,88,6.0,18.0,46,0.00,,,0.00,VWS V14.01,2013-09-22 00:00:00,
2013-09-21 19:02:00,67.3,47.3,29.57,ESE,120,19.0,19.0,49,0.00,,,0.00,VWS V14.01,2013-09-22 00:02:00,
2013-09-21 19:07:00,67.1,47.2,29.56,South,179,7.0,19.0,49,0.00,,,0.00,VWS V14.01,2013-09-22 00:07:00,
2013-09-21 19:12:00,66.8,47.4,29.56,East,88,7.0,19.0,50,0.00,,,0.00,VWS V14.01,2013-09-22 00:12:00,
2013-09-21 19:15:00,68.9,47.7,29.57,ESE,107,8.0,17.0,47,0.00,,,0.00,VWS V14.01,2013-09-22 00:15:00,
2013-09-21 19:17:00,66.4,47.6,29.56,NE,55,4.0,11.0,51,0.00,,,0.00,VWS V14.01,2013-09-22 00:17:00,
2013-09-21 19:22:00,65.9,48.2,29.56,ESE,103,3.0,11.0,53,0.00,,,0.00,VWS V14.01,2013-09-22 00:22:00,
2013-09-21 19:27:00,65.3,48.1,29.56,East,83,3.0,11.0,54,0.00,,,0.00,VWS V14.01,2013-09-22 00:27:00,
2013-09-21 19:30:00,68.7,47.5,29.57,ESE,107,7.0,20.0,47,0.00,,,0.00,VWS V14.01,2013-09-22 00:30:00,
2013-09-21 19:32:00,64.7,48.0,29.56,ENE,78,4.0,8.0,55,0.00,,,0.00,VWS V14.01,2013-09-22 00:32:00,
2013-09-21 19:37:00,64.2,48.0,29.56,East,89,2.0,11.0,56,0.00,,,0.00,VWS V14.01,2013-09-22 00:37:00,
2013-09-21 19:42:00,63.8,48.2,29.56,ENE,73,2.0,11.0,57,0.00,,,0.00,VWS V14.01,2013-09-22 00:42:00,
2013-09-21 19:45:00,68.2,47.6,29.57,ENE,59,10.0,17.0,48,0.00,,,0.00,VWS V14.01,2013-09-22 00:45:00,
2013-09-21 19:47:00,63.5,47.9,29.56,ESE,103,5.0,8.0,57,0.00,,,0.00,VWS V14.01,2013-09-22 00:47:00,
2013-09-21 19:52:00,63.2,47.6,29.56,East,101,6.0,10.0,57,0.00,,,0.00,VWS V14.01,2013-09-22 00:52:00,
2013-09-21 19:57:00,62.8,47.2,29.56,East,93,7.0,10.0,57,0.00,,,0.00,VWS V14.01,2013-09-22 00:57:00,
2013-09-21 20:00:00,67.5,47.5,29.57,ENE,78,6.0,18.0,49,0.00,,,0.00,VWS V14.01,2013-09-22 01:00:00,
2013-09-21 20:02:00,62.5,46.9,29.56,ESE,107,5.0,7.0,57,0.00,,,0.00,VWS V14.01,2013-09-22 01:02:00,
2013-09-21 20:07:00,62.3,46.8,29.56,ESE,102,6.0,11.0,57,0.00,,,0.00,VWS V14.01,2013-09-22 01:07:00,
2013-09-21 20:12:00,62.1,47.0,29.56,SSE,163,9.0,11.0,58,0.00,,,0.00,VWS V14.01,2013-09-22 01:12:00,
2013-09-21 20:15:00,66.7,47.3,29.56,ESE,122,4.0,19.0,50,0.00,,,0.00,VWS V14.01,2013-09-22 01:15:00,
2013-09-21 20:17:00,61.8,46.8,29.56,South,171,3.0,8.0,58,0.00,,,0.00,VWS V14.01,2013-09-22 01:17:00,
2013-09-21 20:22:00,61.5,46.9,29.56,ENE,78,4.0,12.0,59,0.00,,,0.00,VWS V14.01,2013-09-22 01:22:00,
2013-09-21 20:27:00,61.3,46.7,29.57,SE,131,8.0,12.0,59,0.00,,,0.00,VWS V14.01,2013-09-22 01:27:00,
2013-09-21 20:30:00,65.0,48.3,29.56,ESE,117,3.0,11.0,55,0.00,,,0.00,VWS V14.01,2013-09-22 01:30:00,
2013-09-21 20:32:00,61.0,46.9,29.56,East,96,7.0,8.0,60,0.00,,,0.00,VWS V14.01,2013-09-22 01:32:00,
2013-09-21 20:37:00,60.7,46.6,29.57,ESE,120,5.0,9.0,60,0.00,,,0.00,VWS V14.01,2013-09-22 01:37:00,
2013-09-21 20:42:00,60.5,46.4,29.57,East,99,5.0,10.0,60,0.00,,,0.00,VWS V14.01,2013-09-22 01:42:00,
2013-09-21 20:45:00,63.6,47.5,29.56,ESE,108,5.0,11.0,56,0.00,,,0.00,VWS V14.01,2013-09-22 01:45:00,
2013-09-21 20:47:00,60.2,46.6,29.57,SSE,147,4.0,8.0,61,0.00,,,0.00,VWS V14.01,2013-09-22 01:47:00,
2013-09-21 20:52:00,60.0,46.4,29.57,ENE,78,2.0,10.0,61,0.00,,,0.00,VWS V14.01,2013-09-22 01:52:00,
2013-09-21 20:57:00,59.8,46.6,29.57,ESE,104,7.0,10.0,62,0.00,,,0.00,VWS V14.01,2013-09-22 01:57:00,
2013-09-21 21:00:00,62.7,47.1,29.56,East,90,5.0,10.0,57,0.00,,,0.00,VWS V14.01,2013-09-22 02:00:00,
2013-09-21 21:02:00,59.5,46.8,29.57,ENE,57,2.0,5.0,63,0.00,,,0.00,VWS V14.01,2013-09-22 02:02:00,
2013-09-21 21:07:00,59.3,46.6,29.57,ESE,121,4.0,11.0,63,0.00,,,0.00,VWS V14.01,2013-09-22 02:07:00,
2013-09-21 21:12:00,59.4,46.7,29.57,ESE,122,5.0,12.0,63,0.00,,,0.00,VWS V14.01,2013-09-22 02:12:00,
2013-09-21 21:15:00,62.0,46.9,29.56,East,97,4.0,11.0,58,0.00,,,0.00,VWS V14.01,2013-09-22 02:15:00,
2013-09-21 21:17:00,59.3,46.6,29.57,ESE,106,6.0,6.0,63,0.00,,,0.00,VWS V14.01,2013-09-22 02:17:00,
2013-09-21 21:22:00,59.2,46.1,29.57,East,99,11.0,14.0,62,0.00,,,0.00,VWS V14.01,2013-09-22 02:22:00,
2013-09-21 21:27:00,59.3,46.2,29.57,NE,55,5.0,14.0,62,0.00,,,0.00,VWS V14.01,2013-09-22 02:27:00,
2013-09-21 21:30:00,61.1,46.5,29.56,ESE,111,4.0,12.0,59,0.00,,,0.00,VWS V14.01,2013-09-22 02:30:00,
2013-09-21 21:32:00,59.3,46.2,29.57,East,94,8.0,11.0,62,0.00,,,0.00,VWS V14.01,2013-09-22 02:32:00,
2013-09-21 21:37:00,59.2,46.1,29.56,SE,132,12.0,12.0,62,0.00,,,0.00,VWS V14.01,2013-09-22 02:37:00,
2013-09-21 21:42:00,59.1,46.0,29.56,East,82,3.0,12.0,62,0.00,,,0.00,VWS V14.01,2013-09-22 02:42:00,
2013-09-21 21:45:00,60.3,46.7,29.57,NE,51,4.0,10.0,61,0.00,,,0.00,VWS V14.01,2013-09-22 02:45:00,
2013-09-21 21:47:00,58.8,46.1,29.56,ESE,112,7.0,11.0,63,0.00,,,0.00,VWS V14.01,2013-09-22 02:47:00,
2013-09-21 21:52:00,58.4,45.7,29.57,ESE,105,8.0,11.0,63,0.00,,,0.00,VWS V14.01,2013-09-22 02:52:00,
2013-09-21 21:57:00,58.1,45.9,29.56,SSE,154,5.0,11.0,64,0.00,,,0.00,VWS V14.01,2013-09-22 02:57:00,
2013-09-21 22:00:00,59.6,46.5,29.57,ESE,117,6.0,10.0,62,0.00,,,0.00,VWS V14.01,2013-09-22 03:00:00,
2013-09-21 22:02:00,57.8,46.0,29.56,East,101,9.0,11.0,65,0.00,,,0.00,VWS V14.01,2013-09-22 03:02:00,
2013-09-21 22:07:00,57.6,45.8,29.56,ESE,113,4.0,11.0,65,0.00,,,0.00,VWS V14.01,2013-09-22 03:07:00,
2013-09-21 22:12:00,57.3,45.9,29.56,ESE,119,5.0,11.0,66,0.00,,,0.00,VWS V14.01,2013-09-22 03:12:00,
2013-09-21 22:15:00,59.4,46.7,29.57,SE,132,3.0,12.0,63,0.00,,,0.00,VWS V14.01,2013-09-22 03:15:00,
2013-09-21 22:17:00,57.1,45.7,29.56,ENE,78,3.0,13.0,66,0.00,,,0.00,VWS V14.01,2013-09-22 03:17:00,
2013-09-21 22:22:00,56.8,45.9,29.56,ESE,121,7.0,13.0,67,0.00,,,0.00,VWS V14.01,2013-09-22 03:22:00,
2013-09-21 22:27:00,56.5,45.6,29.56,ESE,102,10.0,13.0,67,0.00,,,0.00,VWS V14.01,2013-09-22 03:27:00,
2013-09-21 22:30:00,59.3,46.2,29.57,East,95,7.0,14.0,62,0.00,,,0.00,VWS V14.01,2013-09-22 03:30:00,
2013-09-21 22:32:00,56.2,45.7,29.56,ESE,120,5.0,10.0,68,0.00,,,0.00,VWS V14.01,2013-09-22 03:32:00,
2013-09-21 22:37:00,56.0,45.5,29.56,SSE,153,9.0,11.0,68,0.00,,,0.00,VWS V14.01,2013-09-22 03:37:00,
2013-09-21 22:42:00,55.7,45.6,29.56,ESE,106,9.0,11.0,69,0.00,,,0.00,VWS V14.01,2013-09-22 03:42:00,
2013-09-21 22:45:00,58.9,45.8,29.56,SE,134,7.0,12.0,62,0.00,,,0.00,VWS V14.01,2013-09-22 03:45:00,
2013-09-21 22:47:00,55.5,45.8,29.56,East,101,4.0,11.0,70,0.00,,,0.00,VWS V14.01,2013-09-22 03:47:00,
2013-09-21 22:52:00,55.2,45.5,29.55,SE,129,7.0,13.0,70,0.00,,,0.00,VWS V14.01,2013-09-22 03:52:00,
2013-09-21 22:57:00,54.9,45.6,29.55,SE,124,6.0,13.0,71,0.00,,,0.00,VWS V14.01,2013-09-22 03:57:00,
2013-09-21 23:00:00,57.9,45.7,29.56,SE,128,8.0,13.0,64,0.00,,,0.00,VWS V14.01,2013-09-22 04:00:00,
2013-09-21 23:01:00,54.8,45.5,29.55,East,92,3.0,5.0,71,0.00,,,0.00,VWS V14.01,2013-09-22 04:01:00,
2013-09-21 23:02:00,54.7,45.4,29.55,SE,133,3.0,10.0,71,0.00,,,0.00,VWS V14.01,2013-09-22 04:02:00,
2013-09-21 23:07:00,54.5,45.6,29.55,SE,127,5.0,11.0,72,0.00,,,0.00,VWS V14.01,2013-09-22 04:07:00,
2013-09-21 23:12:00,54.4,45.5,29.55,East,90,6.0,12.0,72,0.00,,,0.00,VWS V14.01,2013-09-22 04:12:00,
2013-09-21 23:15:00,57.2,45.8,29.56,SE,136,7.0,11.0,66,0.00,,,0.00,VWS V14.01,2013-09-22 04:15:00,
2013-09-21 23:17:00,54.2,45.3,29.55,ESE,114,6.0,11.0,72,0.00,,,0.00,VWS V14.01,2013-09-22 04:17:00,
2013-09-21 23:22:00,54.1,45.5,29.55,East,90,6.0,11.0,73,0.00,,,0.00,VWS V14.01,2013-09-22 04:22:00,
2013-09-21 23:27:00,53.9,45.3,29.55,ESE,119,6.0,11.0,73,0.00,,,0.00,VWS V14.01,2013-09-22 04:27:00,
2013-09-21 23:30:00,56.3,45.8,29.55,East,99,8.0,13.0,68,0.00,,,0.00,VWS V14.01,2013-09-22 04:30:00,
2013-09-21 23:32:00,53.7,45.2,29.55,ENE,68,4.0,8.0,73,0.00,,,0.00,VWS V14.01,2013-09-22 04:32:00,
2013-09-21 23:37:00,53.5,45.3,29.55,SSE,151,4.0,13.0,74,0.00,,,0.00,VWS V14.01,2013-09-22 04:37:00,
2013-09-21 23:42:00,53.4,45.2,29.55,East,82,3.0,13.0,74,0.00,,,0.00,VWS V14.01,2013-09-22 04:42:00,
2013-09-21 23:45:00,55.6,45.5,29.56,ENE,68,7.0,11.0,69,0.00,,,0.00,VWS V14.01,2013-09-22 04:45:00,
2013-09-21 23:47:00,53.2,45.0,29.54,East,88,5.0,9.0,74,0.00,,,0.00,VWS V14.01,2013-09-22 04:47:00,
2013-09-21 23:52:00,53.1,44.9,29.54,East,90,7.0,11.0,74,0.00,,,0.00,VWS V14.01,2013-09-22 04:52:00,
2013-09-21 23:57:00,52.9,45.1,29.54,SE,127,5.0,11.0,75,0.00,,,0.00,VWS V14.01,2013-09-22 04:57:00,